THORAD AGENA D DEB

Satellite information

Favourite Embed

Satellite Type and Status

DEBRISIN ORBIT

Key statistics

Satellite THORAD AGENA D DEB at a glance.

Uptime

20346

Days in orbit

Revolutions

≈ 12.9

Per day

Orbit

SSO

Sun Synchronous Orbit

Inclination

99.8

Latest

Satellite identification and parameters

Extended collection of information and parameters for THORAD AGENA D DEB.

Object identification

Identified? True

Debris? True

Object name: THORAD AGENA D DEB

International designator: 1970-025KG

Object number (NORAD): 5220

Object ID (CCSDS): 5220

Country: UNITED STATES OF AMERICA (US)

Current information (Y/N): Y

RCS size: SMALL

Orbital parameters

Period: 111.41 minutes

Inclination: 99.8481 deg

SMA: 7669.678 km

Apoapsis: 1591.454 km

Periapsis: 991.631 km

RAAN: 250.4749 deg

Eccentricy: 0.03910352

Argument of periapsis: 44.5372 deg

Mean anomaly: 11.2165 deg

Mean motion: 12.92519474 rev/day

Mean motion (dot): 0.0000093 rev/day2

B* drag term: 0.0025338679 1/REarth

Two-line elements (TLE)

Creation date: Dec. 21, 2025, 3:42 a.m.

Reference frame: TEME

Reference center: EARTH

Epoch: Dec. 20, 2025, 4:37 p.m. UTC

TLE line 0: 0 THORAD AGENA D DEB

TLE line 1: 1 05220U 70025KG 25354.69242666 .00000930 00000-0 25339-2 0 9999

TLE line 2: 2 05220 99.8481 250.4749 0391035 44.5372 11.2165 12.92519474608438

Live tracking on map

Real-time ground track for satellite THORAD AGENA D DEB.

In-orbit conjunctions

A list of the most updated potential collisions computed for object THORAD AGENA D DEB.

Target Orbit TCA Probability of collision Miss distance Type
PEGASUS DEB LEO 2025-06-20 20:02:29 0.0003017943 32.0 (m) DEBRIS
SL-8 DEB LEO 2024-09-29 00:36:59 0.001145234 242.0 (m) DEBRIS

Associated space launch

Meteorological research and development satellite

THORAD AGENA D DEB was lifted into orbit during the mission ‘Thorad SLV-2G Agena D | Nimbus 4’, on board a Thorad SLV-2G Agena D space rocket.

The launch took place on April 8, 1970, 8:17 a.m. from Space Launch Complex 2E.

For more information about the launch, click the button.

Launch to space Thorad SLV-2G Agena D | Nimbus 4
Thorad SLV-2G Agena D | Nimbus 4

Agency: N/A

Status: Launch Successful

Launch date: April 8, 1970, 8:17 a.m. UTC

Rocket: Thorad SLV-2G Agena D

Launch pad: Space Launch Complex 2E

Location: Vandenberg SFB, CA, USA

...

Latest news about this satellite

There are no fresh news available about this satellite. Check back as we update our databases every day.


Newsletter sign-up

Weekly statistics, charts and insights to help you stay on top of the space industry.